Temp
8 8 8 8 8 8 8 8 8 7 7 7 7 6 6 6 5 5 5 5 5 5 5 5 5 4 4 4 4 4 5 5 5 5 4 5 5 5 5 5 5 5
8 8 8 8 8 8 8 7 7 7 7 7 6 6 5 5 5 5 4 4 4 4 4 5 5 4 4 4 4 4 4 5 5 5 5 5 5 5 5 5 5 5
8 8 8 8 7 7 7 7 7 7 7 7 6 6 5 4 4 4 4 4 4 4 4 4 4 4 4 4 4 4 4 4 5 5 5 5 5 5 5 5 5 5
7 7 7 7 7 7 7 7 7 7 7 6 6 5 5 4 4 4 4 4 4 4 4 4 4 4 4 4 4 4 4 4 4 4 4 4 5 5 5 5 5 5
7 7 7 7 7 7 7 7 7 7 6 6 6 5 5 4 4 4 4 4 4 4 4 4 4 4 4 4 4 4 4 4 4 4 4 4 5 5 5 5 5 5
7 7 7 7 7 7 7 7 6 6 6 5 5 5 4 4 4 4 4 4 4 4 4 4 4 4 4 4 4 4 4 4 4 4 4 4 4 4 4 5 5 5
7 7 6 6 6 6 6 6 6 6 5 5 5 4 4 4 4 4 3 3 3 3 4 3 3 3 3 3 3 4 4 4 4 4 4 4 4 4 4 4 5 5
6 6 6 6 6 6 6 6 6 5 5 4 4 4 4 4 4 4 3 3 3 3 3 3 3 2 3 3 3 3 4 4 3 4 4 4 4 5 5 4 5 5
6 6 6 6 6 6 6 6 5 5 5 4 4 4 4 4 4 3 3 3 3 3 2 2 2 2 2 2 3 3 3 3 3 3 3 4 4 5 5 4 4 5
6 6 6 5 5 5 5 5 5 5 4 4 4 4 4 4 3 3 3 3 3 2 2 2 2 2 2 2 2 2 2 3 3 3 3 3 4 4 4 4 4 4
6 6 5 5 5 5 5 5 5 5 4 4 4 4 4 4 3 3 3 3 3 2 2 2 2 2 2 2 2 2 2 2 2 3 3 3 3 4 4 4 4 4
5 5 5 5 5 5 5 5 5 5 4 4 4 4 4 4 3 3 3 3 3 2 2 2 2 2 2 2 2 2 2 2 2 2 3 3 3 3 4 4 4 4
5 5 5 5 5 5 5 5 5 5 5 4 4 4 4 4 4 3 3 3 3 2 2 2 2 2 2 2 2 2 2 2 2 2 2 2 3 3 3 4 4 4
5 5 5 4 4 4 4 4 5 5 5 5 4 4 4 4 4 3 3 3 3 2 2 2 2 2 2 2 2 2 2 2 2 2 2 3 3 3 3 3 4 4
5 5 4 4 4 4 4 4 4 4 5 5 5 4 4 4 4 3 3 3 3 2 2 2 2 2 1 1 2 2 2 2 2 2 2 2 3 3 3 3 4 5
5 5 5 4 4 4 4 4 4 4 4 4 5 4 4 4 3 3 3 2 2 2 2 2 2 2 1 1 1 2 2 2 2 2 2 2 3 3 3 3 4 4
5 5 5 4 4 4 3 4 4 4 4 4 4 4 4 4 3 3 3 2 2 2 2 2 2 2 1 1 1 2 2 2 2 2 2 2 3 2 3 3 4 4
5 5 5 4 4 3 3 3 4 4 4 4 4 4 4 4 3 3 3 2 2 2 2 2 2 2 1 1 2 2 2 1 1 1 2 2 3 2 2 3 3 4
5 5 4 4 4 3 3 3 4 4 4 4 4 4 3 3 3 3 2 2 2 2 2 2 2 2 2 2 2 2 2 1 1 1 2 2 2 2 3 3 4 4
4 4 4 4 3 3 3 3 4 4 4 3 3 3 3 3 3 3 2 2 2 2 2 2 2 2 2 2 2 2 1 1 1 1 1 1 1 1 2 3 3 4
4 4 4 4 3 3 3 3 3 3 3 3 3 3 3 3 3 3 3 3 2 2 3 3 3 2 2 2 2 2 1 1 1 1 1 1 1 1 1 2 3 3
4 4 4 4 3 3 3 3 3 3 3 3 3 3 3 3 3 3 3 3 3 3 3 3 3 2 2 2 2 1 1 1 1 1 1 1 1 1 1 2 3 3
4 4 4 4 3 3 3 3 3 3 3 3 3 2 2 3 3 3 3 3 3 3 3 3 2 2 2 2 2 2 1 1 1 1 1 1 1 1 1 1 2 3
4 4 4 3 3 3 2 2 2 2 3 3 2 2 2 2 2 2 2 3 3 3 3 2 2 2 2 2 2 2 1 1 1 1 1 1 1 1 1 1 1 2
4 4 4 3 3 2 2 2 2 2 2 2 2 2 2 2 2 2 2 2 2 2 2 2 2 2 2 2 2 2 1 1 1 1 1 1 1 1 1 1 1 1
3 3 3 3 3 2 2 2 1 2 2 2 2 2 2 2 2 2 2 2 2 2 2 2 2 2 2 2 2 2 1 1 1 1 2 1 1 1 1 1 1 1
Height
3173 3171 3169 3167 3165 3164 3162 3161 3159 3157 3155 3154 3152 3151 3150 3149 3148 3147 3146 3145 3144 3143 3142 3140 3139 3137 3137 3136 3135 3134 3133 3133 3133 3134 3133 3132 3131 3132 3132 3132 3133 3134
3171 3169 3167 3166 3164 3162 3160 3158 3156 3155 3153 3151 3149 3148 3147 3146 3145 3144 3143 3142 3141 3140 3139 3137 3136 3134 3133 3132 3131 3129 3128 3128 3128 3128 3128 3127 3127 3127 3127 3127 3128 3129
3168 3166 3165 3163 3162 3160 3158 3156 3154 3153 3151 3149 3147 3146 3144 3143 3142 3141 3140 3139 3138 3137 3135 3134 3133 3131 3130 3129 3127 3126 3124 3123 3122 3122 3121 3121 3121 3122 3122 3122 3123 3124
3165 3164 3162 3161 3159 3158 3156 3154 3152 3151 3149 3147 3145 3144 3142 3141 3140 3138 3137 3136 3135 3134 3132 3131 3129 3128 3126 3125 3123 3122 3121 3119 3118 3117 3116 3116 3116 3115 3116 3117 3117 3118
3163 3161 3160 3158 3156 3155 3153 3152 3150 3149 3147 3145 3144 3142 3140 3139 3137 3136 3135 3133 3132 3130 3129 3127 3126 3124 3123 3121 3120 3118 3117 3116 3115 3114 3112 3112 3112 3110 3110 3111 3111 3111
3161 3159 3157 3156 3154 3152 3151 3149 3148 3146 3145 3143 3142 3140 3138 3136 3135 3134 3132 3131 3129 3127 3125 3124 3123 3121 3120 3118 3117 3115 3114 3112 3111 3110 3108 3107 3107 3106 3105 3105 3105 3105
3158 3157 3155 3153 3152 3150 3149 3147 3146 3144 3142 3141 3139 3137 3136 3134 3133 3131 3129 3128 3126 3124 3122 3121 3119 3118 3117 3115 3114 3112 3110 3108 3107 3105 3104 3102 3102 3101 3100 3099 3099 3099
3156 3154 3153 3151 3150 3149 3147 3145 3143 3141 3140 3138 3137 3135 3133 3131 3130 3129 3127 3125 3123 3121 3119 3117 3116 3115 3114 3113 3111 3108 3106 3104 3102 3100 3098 3097 3097 3096 3095 3094 3093 3093
3154 3152 3151 3150 3148 3147 3145 3143 3141 3139 3137 3136 3134 3133 3131 3129 3128 3127 3125 3122 3120 3118 3116 3115 3113 3112 3111 3109 3107 3105 3102 3100 3098 3096 3093 3092 3091 3091 3090 3088 3087 3087
3152 3150 3149 3148 3146 3145 3143 3141 3139 3137 3135 3134 3132 3131 3129 3128 3126 3124 3122 3120 3118 3116 3114 3112 3111 3109 3107 3106 3104 3101 3099 3097 3094 3092 3089 3087 3086 3085 3084 3083 3081 3081
3150 3148 3147 3146 3144 3142 3140 3138 3136 3135 3133 3132 3130 3129 3128 3126 3124 3122 3120 3118 3116 3114 3112 3110 3108 3106 3105 3103 3101 3099 3096 3093 3091 3088 3085 3083 3081 3080 3078 3077 3076 3076
3148 3146 3145 3144 3142 3140 3138 3136 3134 3133 3131 3130 3128 3127 3126 3124 3122 3121 3118 3117 3115 3112 3110 3108 3106 3104 3103 3101 3099 3097 3094 3091 3087 3084 3081 3079 3077 3075 3073 3071 3070 3070
3146 3144 3143 3141 3140 3138 3136 3134 3132 3131 3129 3128 3126 3125 3124 3122 3120 3119 3116 3114 3113 3111 3108 3106 3104 3102 3100 3098 3096 3094 3091 3088 3085 3081 3078 3075 3072 3070 3068 3066 3065 3065
3144 3142 3140 3138 3137 3135 3134 3132 3130 3128 3127 3125 3124 3123 3121 3120 3118 3116 3114 3112 3110 3108 3106 3103 3101 3100 3098 3095 3093 3091 3088 3085 3082 3078 3074 3070 3067 3065 3063 3061 3060 3061
3141 3139 3137 3136 3134 3133 3131 3130 3128 3126 3125 3123 3121 3120 3119 3117 3115 3113 3112 3110 3108 3106 3103 3101 3099 3097 3095 3092 3090 3087 3085 3082 3078 3074 3070 3065 3062 3060 3059 3057 3056 3056
3139 3137 3135 3134 3132 3131 3129 3127 3126 3124 3122 3121 3119 3118 3116 3115 3113 3111 3109 3107 3106 3103 3101 3099 3097 3095 3093 3090 3087 3084 3081 3079 3075 3071 3067 3062 3058 3055 3054 3053 3052 3052
3136 3135 3133 3131 3129 3128 3127 3125 3124 3122 3120 3119 3117 3115 3114 3112 3110 3108 3106 3104 3103 3101 3099 3097 3095 3092 3090 3088 3085 3082 3079 3075 3072 3068 3064 3060 3056 3052 3050 3049 3048 3048
3134 3132 3130 3129 3127 3126 3124 3123 3121 3120 3118 3116 3115 3113 3111 3110 3108 3106 3104 3102 3100 3099 3096 3094 3092 3090 3088 3085 3083 3080 3076 3073 3070 3066 3061 3057 3053 3049 3047 3045 3045 3044
3131 3129 3128 3126 3125 3123 3122 3121 3119 3118 3116 3114 3113 3111 3109 3107 3105 3103 3102 3099 3098 3096 3094 3092 3090 3088 3085 3083 3080 3077 3074 3071 3068 3064 3059 3054 3050 3046 3044 3043 3041 3040
3129 3127 3125 3124 3123 3121 3120 3119 3117 3115 3114 3112 3110 3108 3107 3105 3103 3101 3099 3097 3095 3094 3092 3089 3087 3085 3083 3081 3078 3075 3072 3070 3067 3063 3058 3053 3048 3044 3041 3040 3039 3037
3127 3125 3123 3122 3120 3119 3118 3117 3115 3113 3111 3110 3108 3106 3104 3103 3101 3099 3097 3096 3093 3091 3089 3087 3084 3082 3080 3078 3075 3073 3071 3068 3065 3061 3057 3052 3047 3043 3039 3038 3036 3035
3125 3123 3121 3120 3118 3117 3115 3114 3113 3111 3109 3107 3106 3104 3102 3101 3099 3097 3095 3093 3091 3089 3087 3085 3082 3080 3078 3075 3073 3071 3069 3067 3064 3060 3056 3052 3047 3043 3039 3036 3034 3032
3123 3121 3119 3118 3116 3114 3113 3112 3111 3109 3107 3105 3104 3102 3100 3099 3097 3095 3093 3091 3089 3087 3085 3083 3080 3078 3075 3073 3071 3069 3067 3065 3062 3059 3056 3052 3047 3042 3038 3035 3032 3030
3121 3119 3117 3115 3114 3112 3111 3110 3108 3107 3105 3103 3101 3100 3099 3097 3095 3094 3091 3089 3087 3085 3083 3081 3079 3076 3074 3071 3069 3066 3064 3063 3061 3058 3055 3051 3047 3043 3038 3034 3031 3028
3118 3117 3115 3113 3112 3110 3109 3107 3106 3105 3103 3101 3099 3098 3097 3095 3094 3092 3090 3087 3085 3083 3081 3079 3077 3075 3072 3070 3067 3065 3062 3060 3059 3056 3053 3050 3047 3043 3038 3034 3030 3026
3115 3114 3112 3111 3109 3108 3106 3105 3103 3102 3101 3099 3098 3096 3095 3093 3092 3090 3088 3086 3084 3082 3079 3077 3075 3074 3071 3068 3066 3063 3061 3059 3057 3055 3052 3049 3046 3042 3038 3034 3030 3026
Wind_Speed
18 19 20 21 22 23 23 24 24 25 25 26 26 25 23 22 20 20 20 21 22 22 23 24 26 27 27 28 29 30 31 32 32 30 30 32 33 33 34 35 35 35
18 19 19 20 21 22 23 24 24 25 25 26 26 25 24 22 21 20 20 21 22 23 24 25 26 27 28 29 29 30 32 33 34 32 31 33 33 33 36 37 38 38
19 19 20 20 21 21 22 23 24 24 25 26 27 26 24 22 21 20 21 21 22 23 24 25 27 28 29 29 29 30 31 32 32 31 32 34 34 35 36 37 38 39
19 19 19 20 21 21 22 22 23 24 25 26 26 25 23 22 20 19 20 20 21 22 22 24 25 27 28 29 29 29 30 30 30 30 31 33 34 34 36 37 38 39
19 19 20 20 21 22 22 22 23 23 24 25 25 25 23 22 21 20 20 20 20 21 21 22 23 24 26 28 29 30 30 30 31 32 33 33 33 33 34 37 39 40
18 19 20 21 21 22 22 22 22 23 23 23 23 24 23 23 23 23 22 22 21 21 21 21 22 22 24 26 28 30 32 32 33 34 34 34 34 34 35 37 39 41
19 19 21 21 22 22 22 22 22 22 22 22 22 23 24 23 24 24 24 23 22 22 22 22 22 21 21 23 25 28 31 33 34 34 35 35 35 35 36 37 39 41
19 20 22 22 22 21 21 21 21 21 21 21 22 23 23 24 24 24 24 24 24 23 22 21 20 21 21 23 25 26 29 31 32 33 35 36 35 35 35 36 39 40
21 22 23 22 21 21 20 20 20 20 21 21 21 22 23 23 23 23 23 23 23 23 22 20 19 20 21 23 24 26 28 29 30 31 33 34 35 35 34 35 37 38
22 22 22 21 20 20 20 20 20 20 20 21 21 21 22 23 22 21 21 22 23 23 21 19 19 20 21 21 23 25 27 28 29 30 31 32 32 33 33 34 35 36
21 22 21 19 19 19 20 20 20 20 20 20 20 20 21 22 21 20 21 22 23 23 21 19 19 21 21 21 23 25 26 27 28 29 30 31 31 30 31 32 34 34
21 20 20 19 19 19 19 20 20 20 20 20 20 19 20 20 19 19 20 20 21 21 20 19 20 21 22 23 25 27 26 26 28 29 28 29 29 28 28 30 32 32
20 21 21 21 20 20 19 19 20 20 20 20 20 20 19 20 19 19 19 19 19 20 20 20 21 22 24 25 26 26 26 27 29 29 28 27 26 26 27 27 28 29
21 22 23 23 22 21 19 18 19 19 20 20 21 20 19 20 20 19 18 17 18 19 20 21 21 23 25 26 27 27 27 29 31 31 32 31 27 25 25 26 26 27
22 23 24 24 23 21 19 18 18 19 20 20 21 21 20 20 20 19 18 16 16 17 19 21 22 23 25 26 28 29 29 30 32 33 35 35 31 25 23 24 24 25
23 24 24 23 22 20 19 19 19 20 21 21 21 21 20 20 20 18 17 16 16 17 18 19 21 23 24 26 29 29 30 31 33 35 35 36 33 27 23 22 22 24
25 25 24 23 22 20 19 19 20 21 21 22 22 22 21 21 20 17 16 16 16 17 18 19 21 23 25 27 29 29 30 32 33 35 36 36 34 28 23 21 21 23
26 26 24 22 21 20 20 20 21 21 21 22 22 22 21 21 19 17 16 16 17 17 19 20 22 24 26 28 29 28 29 31 33 35 37 38 37 28 22 22 21 22
26 27 25 22 20 20 21 21 21 21 21 22 22 21 21 20 19 17 15 16 17 18 19 21 22 23 25 28 28 27 28 30 31 34 37 39 40 31 21 20 21 20
27 27 26 23 21 21 22 22 22 21 22 22 21 20 20 19 18 16 16 17 17 18 20 21 23 23 25 27 26 26 27 28 29 33 35 38 39 34 23 19 20 19
26 26 26 24 22 22 23 23 22 22 22 22 21 19 19 18 17 16 16 17 17 18 20 22 23 24 24 25 25 24 24 25 27 31 33 34 35 33 26 20 19 18
26 25 25 24 23 23 23 23 22 21 22 22 19 18 18 18 17 16 17 17 17 19 20 21 23 24 24 24 23 22 21 22 25 28 31 33 32 30 26 20 19 18
25 24 24 24 23 23 23 23 21 21 22 21 19 17 18 18 18 17 17 17 18 18 19 20 21 22 22 22 22 21 19 20 23 26 29 32 31 28 25 21 17 15
23 23 23 23 23 23 23 22 21 20 21 20 18 17 18 19 17 15 16 17 17 18 19 20 20 20 20 21 22 21 19 20 22 25 27 30 30 28 25 21 19 17
23 23 23 23 23 23 23 22 21 20 20 19 18 17 19 18 17 15 15 16 17 18 20 20 20 20 20 21 21 21 20 19 21 22 26 29 29 28 28 27 22 16
25 24 23 23 22 22 22 22 21 20 19 18 17 17 18 18 16 15 15 16 16 18 19 21 21 21 21 20 20 20 20 19 19 21 24 26 27 28 31 33 29 20
Wind_Direction
318 320 321 321 319 318 317 315 315 315 315 315 317 318 318 316 311 305 298 294 292 291 288 287 285 285 283 282 280 278 276 274 272 271 269 267 264 260 259 258 255 251
319 320 320 320 320 319 317 316 316 316 317 318 320 321 322 320 315 309 303 298 295 292 290 288 286 286 284 282 281 279 278 277 275 272 269 266 264 261 260 260 258 254
320 320 320 320 320 319 317 316 316 316 317 318 320 321 321 320 316 311 307 302 298 295 292 289 287 285 283 281 279 278 277 279 279 277 274 270 265 261 261 260 258 255
320 320 321 321 321 320 318 317 317 317 318 319 320 320 319 318 316 313 310 305 302 299 294 291 287 285 283 282 280 278 277 278 280 279 276 274 268 262 261 262 259 256
321 320 321 322 321 321 320 319 319 319 320 320 320 319 318 317 317 317 315 313 311 307 300 294 290 287 285 283 282 282 281 281 281 280 278 276 274 269 265 263 261 259
321 321 321 322 321 321 321 321 321 321 321 322 321 319 317 317 318 319 320 320 317 312 306 300 296 294 290 287 286 285 286 286 284 283 281 279 277 274 270 266 262 260
322 322 322 322 321 321 320 321 323 322 322 323 321 319 319 320 322 323 324 324 320 315 309 301 296 297 299 297 295 293 292 290 288 285 282 280 279 278 274 270 265 262
324 323 322 321 319 319 320 321 323 322 322 322 322 322 323 324 327 328 328 328 325 321 318 311 302 301 304 304 302 300 297 295 293 290 286 282 280 280 278 272 267 264
324 322 319 318 318 318 320 322 323 323 322 322 323 324 325 327 329 332 333 333 331 330 328 324 315 309 309 308 308 306 303 300 299 297 294 288 282 280 279 274 268 264
323 320 318 317 318 319 321 323 324 324 322 321 323 325 326 328 329 333 337 338 338 337 332 326 320 316 314 315 316 315 312 309 304 299 297 295 291 285 280 274 268 264
322 321 320 319 320 323 324 324 324 324 322 320 321 324 325 327 329 332 336 340 343 341 336 329 322 318 318 318 319 319 320 320 316 307 297 294 295 292 285 275 268 263
321 322 321 320 322 326 326 325 324 324 322 320 320 321 323 324 326 329 333 338 342 341 337 332 326 323 323 322 318 319 323 326 326 321 309 298 294 294 290 279 269 264
321 321 320 319 321 324 325 325 325 325 322 319 318 319 320 321 322 325 328 334 339 339 335 331 327 326 328 326 324 324 326 327 327 328 325 315 301 295 293 285 272 265
320 319 317 317 317 319 321 322 324 326 324 320 317 317 318 318 319 321 324 330 335 334 330 327 326 327 328 327 328 330 329 326 325 328 332 328 314 298 293 288 276 266
322 320 318 316 313 314 316 319 322 324 324 322 318 317 316 314 314 317 320 325 329 328 327 326 326 326 326 325 326 328 328 325 326 329 334 334 324 308 295 290 280 267
324 322 319 315 310 309 313 317 320 321 321 321 320 318 316 312 311 313 316 320 321 321 322 323 322 322 323 322 322 325 326 326 327 330 333 335 331 316 300 291 283 270
326 324 322 317 311 308 311 316 319 319 318 319 319 318 315 311 309 309 310 312 314 316 317 317 318 318 320 321 321 323 326 327 329 331 332 337 336 322 303 296 288 275
327 325 323 318 312 309 312 316 318 318 317 318 318 317 315 311 307 306 306 306 308 311 312 313 314 316 317 319 320 323 327 328 330 331 332 339 341 330 307 301 297 282
327 325 323 319 311 308 312 316 319 319 318 318 317 316 315 311 307 305 304 303 306 309 310 310 312 314 315 317 320 324 327 329 330 333 336 341 343 337 316 306 305 290
329 326 323 319 310 306 310 315 319 321 319 318 317 317 316 313 310 308 305 303 305 309 310 310 311 314 315 317 321 325 327 328 331 335 340 343 343 340 327 312 312 302
330 326 323 318 310 307 310 315 320 321 319 317 318 319 318 316 315 313 308 305 306 308 310 311 314 318 319 319 322 324 325 329 332 336 343 346 343 342 335 317 312 313
329 326 322 316 311 309 312 317 321 321 319 318 320 322 321 320 320 317 312 308 307 308 310 314 318 321 323 322 321 322 325 329 331 336 345 348 345 346 346 332 312 305
326 325 322 317 312 310 313 317 322 322 320 319 323 326 326 325 324 321 316 312 311 312 315 320 323 325 329 328 323 322 323 325 329 336 345 349 347 346 351 353 344 328
323 323 322 317 311 309 312 316 319 321 321 320 324 329 329 327 328 327 324 321 321 321 322 325 327 330 335 336 330 324 321 322 326 335 343 348 349 348 350 354 360 1
320 320 319 317 312 308 310 312 315 318 319 318 322 328 328 327 329 332 332 331 328 327 327 329 332 334 337 339 336 329 324 321 323 331 342 347 348 353 358 356 351 352
316 316 316 314 310 307 307 309 310 312 314 314 318 324 324 323 327 330 332 333 331 330 332 333 335 336 337 338 339 336 330 324 321 326 338 345 347 353 0 359 355 352